Weather History for Pine Ridge, SD

Change the Weather History Date:

Monday, August 26, 2013

  Actual Average Record
Temperature  
Mean Temperature 80 °F 70 °F  
Max Temperature 99 °F 86 °F 101 °F (2010)
Min Temperature 61 °F 53 °F 46 °F (2005)
Degree Days  
Heating Degree Days 0 1  
Month to date heating degree days 0 14  
Since 1 June heating degree days 80 113  
Since 1 July heating degree days 2 26  
Cooling Degree Days 15 6  
Month to date cooling degree days 204 215  
Year to date cooling degree days 588 623  
Since 1 June cooling degree days 571 606  
Growing Degree Days 31 (Base 50)    
Moisture  
Dew Point 54 °F    
Average Humidity 54    
Maximum Humidity 90    
Minimum Humidity 17    
Precipitation  
Precipitation 0.00 in 0.05 in 0.02 in (2008)
Month to date precipitation 2.30 1.61  
Year to date precipitation 13.99 13.55  
Sea Level Pressure  
Sea Level Pressure 29.87 in    
Wind  
Wind Speed 6 mph (WSW)    
Max Wind Speed 20 mph    
Max Gust Speed 31 mph    
Visibility 10 miles    
Events      
T = Trace of Precipitation, MM = Missing Value Source: NWS Daily Summary

Daily Weather History Graph

Daily Weather History Graph

Search for Another Location

Airport:

Trip Planner

Search our weather history database for the weather conditions in past years. The results will help you decide how hot, cold, wet, or windy it might be!

Date:

Astronomy

Aug. 26, 2013 Rise Set
Actual Time 6:08 AM MDT 7:34 PM MDT
Civil Twilight 5:38 AM MDT 8:04 PM MDT
Nautical Twilight 5:02 AM MDT 8:39 PM MDT
Astronomical Twilight 4:24 AM MDT 9:17 PM MDT
Moon 10:35 PM MDT (8/26) 12:22 PM MDT (8/26)
Length of Visible Light 14h 25m
Length of Day
13h 26m
Waning Gibbous, 66% of the Moon is Illuminated
Aug 26
Waning Gibbous
Aug 28
Last Quarter
Sep 5
New
Sep 12
First Quarter
Sep 19
Full

Hourly Weather History & Observations

Time (MDT) Temp. Heat Index Dew Point Humidity Pressure Visibility Wind Dir Wind Speed Gust Speed Precip Events Conditions
12:52 AM 66.9 °F - 61.0 °F 81% 29.86 in 10.0 mi NE 4.6 mph - N/A   Clear
1:52 AM 66.0 °F - 60.1 °F 81% 29.85 in 10.0 mi Calm Calm - N/A   Clear
2:52 AM 66.9 °F - 60.1 °F 79% 29.85 in 10.0 mi West 3.5 mph - N/A   Clear
3:52 AM 63.0 °F - 59.0 °F 87% 29.86 in 10.0 mi Calm Calm - N/A   Clear
4:52 AM 64.0 °F - 59.0 °F 84% 29.87 in 10.0 mi SW 6.9 mph - N/A   Clear
5:52 AM 64.0 °F - 57.9 °F 80% 29.89 in 10.0 mi West 5.8 mph - N/A   Clear
6:52 AM 66.0 °F - 59.0 °F 78% 29.92 in 10.0 mi SSW 4.6 mph - N/A   Clear
7:52 AM 75.0 °F - 59.0 °F 57% 29.92 in 10.0 mi SSW 3.5 mph - N/A   Clear
8:52 AM 82.0 °F 81.6 °F 55.9 °F 41% 29.91 in 10.0 mi West 6.9 mph - N/A   Clear
9:52 AM 84.0 °F 82.9 °F 55.0 °F 37% 29.92 in 10.0 mi WSW 9.2 mph - N/A   Clear
10:52 AM 89.1 °F 87.1 °F 55.0 °F 31% 29.91 in 10.0 mi WSW 8.1 mph - N/A   Clear
11:52 AM 91.0 °F 88.5 °F 53.1 °F 27% 29.89 in 10.0 mi WSW 10.4 mph 20.7 mph N/A   Clear
12:52 PM 95.0 °F 92.7 °F 54.0 °F 25% 29.87 in 10.0 mi West 12.7 mph 20.7 mph N/A   Clear
1:52 PM 98.1 °F - 51.1 °F 20% 29.85 in 10.0 mi West 13.8 mph 19.6 mph N/A   Clear
2:52 PM 99.0 °F - 48.0 °F 18% 29.83 in 10.0 mi SW 16.1 mph 20.7 mph N/A   Clear
3:52 PM 99.0 °F - 46.9 °F 17% 29.82 in 10.0 mi SW 11.5 mph - N/A   Clear
4:52 PM 98.1 °F - 46.0 °F 17% 29.82 in 10.0 mi West 8.1 mph 17.3 mph N/A   Clear
5:52 PM 96.1 °F - 48.9 °F 20% 29.83 in 10.0 mi WSW 9.2 mph - N/A   Clear
6:52 PM 90.0 °F - 50.0 °F 25% 29.83 in 10.0 mi WSW 6.9 mph - N/A   Clear
7:52 PM 81.0 °F - 52.0 °F 36% 29.83 in 9.0 mi Calm Calm - N/A   Clear
8:52 PM 75.0 °F - 52.0 °F 44% 29.85 in 10.0 mi Calm Calm - N/A   Clear
9:52 PM 70.0 °F - 53.1 °F 55% 29.86 in 10.0 mi Calm Calm - N/A   Clear
10:52 PM 64.9 °F - 54.0 °F 68% 29.87 in 10.0 mi Calm Calm - N/A   Clear
11:52 PM 66.9 °F - 55.0 °F 66% 29.87 in 10.0 mi Calm Calm - N/A   Clear